Weather History for Jaipur / Sanganer, India

Change the Weather History Date:

Friday, September 13, 2013

  Actual Average Record
Temperature  
Mean Temperature 90 °F -  
Max Temperature 99 °F - - ()
Min Temperature 80 °F - - ()
Cooling Degree Days 24    
Growing Degree Days 40 (Base 50)    
Moisture  
Dew Point 71 °F    
Average Humidity 61    
Maximum Humidity 79    
Minimum Humidity 39    
Precipitation  
Precipitation 0.00 in - - ()
Sea Level Pressure  
Sea Level Pressure 29.81 in    
Wind  
Wind Speed 6 mph ()    
Max Wind Speed 92 mph    
Max Gust Speed 26 mph    
Visibility 1.9 miles    
Events Rain , Thunderstorm    
T = Trace of Precipitation, MM = Missing Value Source: Averaged Metar Reports

Daily Weather History Graph

Daily Weather History Graph

Search for Another Location

Airport:

Trip Planner

Search our weather history database for the weather conditions in past years. The results will help you decide how hot, cold, wet, or windy it might be!

Date:

Astronomy

Sep. 13, 2013 Rise Set
Actual Time 6:11 AM IST 6:33 PM IST
Civil Twilight 5:48 AM IST 6:56 PM IST
Nautical Twilight 5:20 AM IST 7:24 PM IST
Astronomical Twilight 4:53 AM IST 7:51 PM IST
Moon 1:34 PM IST (9/13) No Moon Set
Length of Visible Light 13h 08m
Length of Day
12h 22m
First Quarter, 56% of the Moon is Illuminated
Sep 13
First Quarter
Sep 19
Full
Sep 27
Last Quarter
Oct 5
New
Oct 12
First Quarter

Hourly Weather History & Observations

Time (IST) Temp. Heat Index Dew Point Humidity Pressure Visibility Wind Dir Wind Speed Gust Speed Precip Events Conditions
12:00 AM 82.4 °F 87.2 °F 71.6 °F 70% 29.86 in 1.9 mi East 4.6 mph - N/A   Haze
1:00 AM 82.4 °F 87.2 °F 71.6 °F 70% 29.86 in 1.9 mi Calm Calm - N/A   Haze
2:00 AM 82.4 °F 87.2 °F 71.6 °F 70% 29.86 in 1.9 mi Variable 1.2 mph - N/A   Haze
2:30 AM - - 71 °F % 29.77 in 0 mi NNE 92.1 mph - -  
4:00 AM 82.4 °F 87.2 °F 71.6 °F 70% 29.83 in 1.9 mi Variable 3.5 mph - N/A   Haze
5:00 AM 80.6 °F 84.6 °F 71.6 °F 74% 29.83 in 1.9 mi Calm Calm - N/A   Haze
6:00 AM 80.6 °F 84.6 °F 71.6 °F 74% 29.86 in 1.9 mi Calm Calm - N/A   Haze
7:00 AM 82.4 °F 87.2 °F 71.6 °F 70% 29.86 in 1.9 mi Calm Calm - N/A   Haze
8:00 AM 86.0 °F 93.4 °F 73.4 °F 66% 29.89 in 1.9 mi Variable 2.3 mph - N/A   Haze
8:30 AM 88 °F - 73 °F 54% 29.80 in 1 mi SE 3.5 mph - -   Haze
9:00 AM 89.6 °F 96.2 °F 71.6 °F 55% 29.89 in 1.9 mi Variable 1.2 mph - N/A   Haze
10:00 AM 91.4 °F 100.1 °F 73.4 °F 55% 29.89 in 2.5 mi Calm Calm - N/A   Haze
11:00 AM 93.2 °F 100.5 °F 71.6 °F 49% 29.89 in 2.5 mi Variable 2.3 mph - N/A   Haze
11:30 AM 95 °F - 73 °F 39% 29.76 in 2 mi West 2.3 mph - -   Haze
12:00 PM 95.0 °F 99.5 °F 68.0 °F 41% 29.86 in 2.5 mi Variable 2.3 mph - N/A   Haze
2:00 PM 82.4 °F 87.2 °F 71.6 °F 70% 29.80 in 1.9 mi SSW 9.2 mph - N/A Thunderstorm Thunderstorm
2:30 PM 87 °F - 72 °F 53% 29.73 in 1 mi South 4.6 mph - - Thunderstorm Thunderstorm
4:00 PM 91.4 °F 94.0 °F 66.2 °F 43% 29.77 in 2.5 mi Variable 10.4 mph 26.5 mph N/A   Haze
5:00 PM 89.6 °F 92.2 °F 66.2 °F 46% 29.80 in 2.5 mi Variable 9.2 mph - N/A   Haze
5:30 PM 89 °F - 68 °F 41% 29.70 in 2 mi Calm Calm - -   Haze
6:00 PM 87.8 °F 91.4 °F 68.0 °F 52% 29.77 in 2.5 mi Calm Calm - N/A Rain Light Rain
7:00 PM 84.2 °F 89.6 °F 71.6 °F 66% 29.77 in 2.2 mi Calm Calm - N/A   Haze
8:00 PM 86.0 °F 91.8 °F 71.6 °F 62% 29.77 in 2.2 mi Calm Calm - N/A   Scattered Clouds
8:30 PM 84 °F - 74 °F 65% 29.71 in 1 mi ESE 2.3 mph - -   Haze
10:00 PM 80.6 °F 85.4 °F 73.4 °F 79% 29.83 in 1.9 mi Calm Calm - N/A   Haze
11:00 PM 80.6 °F 84.6 °F 71.6 °F 74% 29.83 in 1.9 mi Calm Calm - N/A   Haze
11:30 PM 81 °F - 73 °F 70% 29.81 in 1 mi Calm Calm - -   Haze